TimeCST,TemperatureF,Dew PointF,Humidity,Sea Level PressureIn,VisibilityMPH,Wind Direction,Wind SpeedMPH,Gust SpeedMPH,PrecipitationIn,Events,Conditions,WindDirDegrees,DateUTC
12:53 AM,-2.0,-11.0,66,30.44,10.0,NW,13.8,-,N/A,,Clear,310,2013-01-20 06:53:00
1:53 AM,-2.0,-11.0,66,30.44,10.0,NNW,12.7,-,N/A,,Clear,330,2013-01-20 07:53:00
2:53 AM,-2.0,-11.9,63,30.46,10.0,NW,9.2,-,N/A,,Clear,320,2013-01-20 08:53:00
3:53 AM,-2.0,-11.0,66,30.43,10.0,North,6.9,-,N/A,,Clear,350,2013-01-20 09:53:00
4:53 AM,-2.9,-11.9,65,30.43,10.0,NNW,3.5,-,N/A,,Clear,330,2013-01-20 10:53:00
5:53 AM,-5.1,-13.0,69,30.43,10.0,Calm,Calm,-,N/A,,Clear,0,2013-01-20 11:53:00
6:53 AM,-5.1,-11.9,72,30.45,10.0,West,4.6,-,N/A,,Scattered Clouds,270,2013-01-20 12:53:00
7:53 AM,-2.0,-9.9,69,30.45,10.0,West,5.8,-,N/A,,Overcast,270,2013-01-20 13:53:00
8:26 AM,-0.4,-7.6,72,30.37,2.5,West,8.1,-,0.00,Snow,Light Snow,260,2013-01-20 14:26:00
8:33 AM,-0.4,-7.6,72,30.37,5.0,West,8.1,-,0.00,Snow,Light Snow,270,2013-01-20 14:33:00
8:53 AM,-0.0,-8.0,69,30.45,10.0,WSW,5.8,-,0.00,,Overcast,250,2013-01-20 14:53:00
9:53 AM,3.0,-6.0,66,30.46,10.0,WNW,15.0,-,N/A,,Overcast,290,2013-01-20 15:53:00
10:53 AM,3.0,-7.1,63,30.46,9.0,WNW,17.3,-,N/A,,Mostly Cloudy,300,2013-01-20 16:53:00
11:53 AM,1.9,-8.0,63,30.48,9.0,NW,19.6,-,N/A,,Mostly Cloudy,310,2013-01-20 17:53:00
12:26 PM,1.4,-7.6,66,30.39,1.8,NW,19.6,-,0.00,Snow,Light Snow,320,2013-01-20 18:26:00
12:36 PM,1.4,-7.6,66,30.38,3.0,NW,19.6,-,0.00,Snow,Light Snow,310,2013-01-20 18:36:00
12:50 PM,1.4,-7.6,66,30.39,2.5,WNW,19.6,25.3,0.00,Snow,Light Snow,300,2013-01-20 18:50:00
12:53 PM,1.0,-9.0,63,30.48,2.5,NW,21.9,28.8,0.00,Snow,Light Snow,310,2013-01-20 18:53:00
1:00 PM,1.4,-9.4,61,30.39,8.0,NW,21.9,28.8,0.00,,Scattered Clouds,310,2013-01-20 19:00:00
1:29 PM,1.4,-9.4,61,30.39,9.0,NW,18.4,25.3,0.00,,Mostly Cloudy,310,2013-01-20 19:29:00
1:53 PM,1.0,-9.0,63,30.46,7.0,NW,19.6,-,0.00,,Mostly Cloudy,310,2013-01-20 19:53:00
2:53 PM,1.0,-9.9,60,30.45,7.0,NW,20.7,26.5,N/A,,Overcast,320,2013-01-20 20:53:00
3:36 PM,-0.4,-9.4,66,30.37,10.0,NW,17.3,24.2,N/A,,Scattered Clouds,310,2013-01-20 21:36:00
3:51 PM,-0.4,-11.2,60,30.37,6.0,NW,16.1,-,N/A,,Haze,320,2013-01-20 21:51:00
3:53 PM,-0.0,-11.0,60,30.46,8.0,NW,17.3,-,N/A,,Mostly Cloudy,310,2013-01-20 21:53:00
4:42 PM,-2.2,-13.0,60,30.37,10.0,NW,17.3,-,N/A,,Scattered Clouds,310,2013-01-20 22:42:00
4:53 PM,-2.0,-13.0,60,30.46,10.0,NW,16.1,-,N/A,,Clear,310,2013-01-20 22:53:00
5:39 PM,-2.2,-11.2,66,30.37,7.0,WNW,12.7,-,N/A,,Mostly Cloudy,290,2013-01-20 23:39:00
5:53 PM,-2.9,-13.0,62,30.46,10.0,WNW,16.1,-,N/A,,Scattered Clouds,300,2013-01-20 23:53:00
6:53 PM,-4.0,-14.1,62,30.45,10.0,WNW,21.9,28.8,N/A,,Clear,300,2013-01-21 00:53:00
7:53 PM,-6.0,-17.0,59,30.45,10.0,NW,19.6,-,N/A,,Clear,310,2013-01-21 01:53:00
8:53 PM,-8.0,-17.0,65,30.45,10.0,NW,19.6,25.3,N/A,,Mostly Cloudy,310,2013-01-21 02:53:00
9:00 PM,-7.6,-18.4,59,30.36,10.0,NW,17.3,-,N/A,,Partly Cloudy,310,2013-01-21 03:00:00
9:53 PM,-9.0,-20.0,59,30.45,10.0,NW,21.9,27.6,N/A,,Clear,320,2013-01-21 03:53:00
10:53 PM,-9.9,-20.0,61,30.47,10.0,NW,12.7,-,N/A,,Clear,310,2013-01-21 04:53:00
11:53 PM,-11.0,-20.9,62,30.47,10.0,WNW,13.8,-,N/A,,Clear,300,2013-01-21 05:53:00